| time (UTC) | temp F | wind direction | speed knots | gust knots | rain 1hr in | rain 24hr in | rain mn in | humidity % | barometer mb |
| 20260906123456 | 74 | 14 | 0.0 | 0.0 | 0.00 | 0.00 | 0.00 | 99 | 1014.5 |
| 20260906122951 | 74 | 14 | 0.0 | 0.0 | 0.00 | 0.00 | 0.00 | 99 | 1014.7 |
| 20260906122446 | 73 | 14 | 0.0 | 0.0 | 0.00 | 0.00 | 0.00 | 99 | 1014.6 |
| 20260906121942 | 73 | 14 | 0.0 | 0.0 | 0.00 | 0.00 | 0.00 | 99 | 1014.6 |
| 20260906121438 | 73 | 14 | 0.0 | 0.0 | 0.00 | 0.00 | 0.00 | 99 | 1014.6 |
| 20260906120935 | 73 | 14 | 0.0 | 0.0 | 0.00 | 0.00 | 0.00 | 99 | 1014.6 |
| 20260906120430 | 73 | 14 | 0.0 | 0.0 | 0.00 | 0.00 | 0.00 | 99 | 1014.2 |
| 20260906115925 | 73 | 14 | 0.0 | 0.0 | 0.00 | 0.00 | 0.00 | 99 | 1014.3 |
| 20260906115421 | 73 | 14 | 0.0 | 0.0 | 0.00 | 0.00 | 0.00 | 99 | 1014.2 |
| 20260906114915 | 72 | 16 | 0.0 | 0.0 | 0.00 | 0.00 | 0.00 | 99 | 1014.2 |
| 20260906114410 | 72 | 14 | 0.0 | 0.0 | 0.00 | 0.00 | 0.00 | 99 | 1014.0 |
| 20260906113906 | 72 | 14 | 0.0 | 0.0 | 0.00 | 0.00 | 0.00 | 99 | 1014.1 |
| 20260906113404 | 72 | 13 | 0.0 | 0.0 | 0.00 | 0.00 | 0.00 | 99 | 1014.2 |
| 20260906112900 | 72 | 13 | 0.0 | 0.0 | 0.00 | 0.00 | 0.00 | 99 | 1014.0 |
| 20260906112355 | 72 | 13 | 0.0 | 0.0 | 0.00 | 0.00 | 0.00 | 99 | 1014.2 |
| 20260906111850 | 72 | 13 | 0.0 | 0.0 | 0.00 | 0.00 | 0.00 | 99 | 1014.0 |
| 20260906111350 | 72 | 13 | 0.0 | 0.0 | 0.00 | 0.00 | 0.00 | 99 | 1014.2 |
| 20260906110844 | 72 | 14 | 0.0 | 0.0 | 0.00 | 0.00 | 0.00 | 99 | 1014.0 |
| 20260906110340 | 72 | 13 | 0.0 | 0.0 | 0.00 | 0.00 | 0.00 | 99 | 1013.8 |
| 20260906105839 | 72 | 13 | 0.0 | 0.0 | 0.00 | 0.00 | 0.00 | 99 | 1013.9 |
| 20260906105335 | 72 | 13 | 0.0 | 0.0 | 0.00 | 0.00 | 0.00 | 99 | 1014.1 |
| 20260906104830 | 72 | 14 | 0.0 | 0.0 | 0.00 | 0.00 | 0.00 | 99 | 1013.9 |
| 20260906104329 | 72 | 13 | 0.0 | 0.0 | 0.00 | 0.00 | 0.00 | 99 | 1013.8 |
| 20260906103823 | 72 | 13 | 0.0 | 0.0 | 0.00 | 0.00 | 0.00 | 99 | 1013.9 |
| 20260906103321 | 72 | 13 | 0.0 | 0.0 | 0.00 | 0.00 | 0.00 | 99 | 1013.8 |
| 20260906102817 | 72 | 13 | 0.0 | 0.0 | 0.00 | 0.00 | 0.00 | 99 | 1013.8 |
| 20260906102316 | 72 | 13 | 0.0 | 0.0 | 0.00 | 0.00 | 0.00 | 99 | 1013.9 |
| 20260906101812 | 72 | 13 | 0.0 | 0.0 | 0.00 | 0.00 | 0.00 | 99 | 1014.2 |
| 20260906101306 | 72 | 13 | 0.0 | 0.0 | 0.00 | 0.00 | 0.00 | 99 | 1014.1 |
| 20260906100802 | 72 | 13 | 0.0 | 0.0 | 0.00 | 0.00 | 0.00 | 99 | 1014.4 |
| 20260906100301 | 72 | 13 | 0.0 | 0.0 | 0.00 | 0.00 | 0.00 | 99 | 1014.0 |
| 20260906095756 | 72 | 13 | 0.0 | 0.0 | 0.00 | 0.00 | 0.00 | 99 | 1014.2 |
| 20260906095252 | 72 | 13 | 0.0 | 0.0 | 0.00 | 0.00 | 0.00 | 99 | 1014.1 |
| 20260906094750 | 72 | 13 | 0.0 | 0.0 | 0.00 | 0.00 | 0.00 | 99 | 1014.4 |
| 20260906094246 | 72 | 13 | 0.0 | 0.0 | 0.00 | 0.00 | 0.00 | 99 | 1014.5 |
| 20260906093742 | 72 | 13 | 0.0 | 0.0 | 0.00 | 0.00 | 0.00 | 99 | 1014.4 |
| 20260906093238 | 72 | 13 | 0.0 | 0.0 | 0.00 | 0.00 | 0.00 | 99 | 1014.5 |
| 20260906092733 | 72 | 13 | 0.0 | 0.0 | 0.00 | 0.00 | 0.00 | 99 | 1014.4 |
| 20260906092233 | 72 | 14 | 0.0 | 2.6 | 0.00 | 0.00 | 0.00 | 99 | 1014.6 |
| 20260906091728 | 72 | 13 | 0.0 | 1.7 | 0.00 | 0.00 | 0.00 | 99 | 1014.7 |
| 20260906091224 | 72 | 14 | 0.0 | 0.0 | 0.00 | 0.00 | 0.00 | 99 | 1014.4 |
| 20260906090721 | 72 | 14 | 0.0 | 0.0 | 0.00 | 0.00 | 0.00 | 99 | 1014.3 |
| 20260906090219 | 71 | 14 | 0.0 | 0.0 | 0.00 | 0.00 | 0.00 | 99 | 1014.2 |
| 20260906085719 | 71 | 14 | 0.0 | 0.0 | 0.00 | 0.00 | 0.00 | 99 | 1014.0 |
| 20260906085217 | 71 | 14 | 0.0 | 0.0 | 0.00 | 0.00 | 0.00 | 99 | 1014.0 |
| 20260906084712 | 72 | 14 | 0.0 | 0.0 | 0.00 | 0.00 | 0.00 | 99 | 1014.0 |
| 20260906084207 | 72 | 14 | 0.0 | 0.0 | 0.00 | 0.00 | 0.00 | 99 | 1014.1 |
| 20260906083702 | 72 | 14 | 0.0 | 0.0 | 0.00 | 0.00 | 0.00 | 99 | 1014.0 |
| 20260906083157 | 72 | 14 | 0.0 | 0.0 | 0.00 | 0.00 | 0.00 | 99 | 1014.0 |
| 20260906082652 | 71 | 14 | 0.0 | 0.9 | 0.00 | 0.00 | 0.00 | 99 | 1014.4 |
| 20260906082147 | 71 | 51 | 0.0 | 0.0 | 0.00 | 0.00 | 0.00 | 99 | 1014.3 |
| 20260906081644 | 71 | 51 | 0.0 | 0.0 | 0.00 | 0.00 | 0.00 | 99 | 1014.2 |
| 20260906081138 | 71 | 51 | 0.0 | 0.0 | 0.00 | 0.00 | 0.00 | 99 | 1014.3 |
| 20260906080635 | 71 | 51 | 0.0 | 0.9 | 0.00 | 0.00 | 0.00 | 99 | 1014.0 |
| 20260906080131 | 71 | 51 | 0.0 | 0.0 | 0.00 | 0.00 | 0.00 | 99 | 1013.9 |
| 20260906075630 | 71 | 51 | 0.0 | 0.0 | 0.00 | 0.00 | 0.00 | 99 | 1013.6 |
| 20260906075125 | 71 | 51 | 0.0 | 0.0 | 0.00 | 0.00 | 0.00 | 99 | 1013.6 |
| 20260906074621 | 71 | 51 | 0.0 | 0.0 | 0.00 | 0.00 | 0.00 | 99 | 1013.7 |
| 20260906074119 | 71 | 51 | 0.0 | 0.0 | 0.00 | 0.00 | 0.00 | 99 | 1013.7 |
| 20260906073614 | 71 | 51 | 0.0 | 0.0 | 0.00 | 0.00 | 0.00 | 99 | 1013.5 |
| 20260906073110 | 71 | 51 | 0.0 | 0.0 | 0.00 | 0.00 | 0.00 | 99 | 1013.6 |
| 20260906072605 | 71 | 51 | 0.0 | 0.0 | 0.00 | 0.00 | 0.00 | 99 | 1013.6 |
| 20260906072100 | 71 | 51 | 0.0 | 0.0 | 0.00 | 0.00 | 0.00 | 99 | 1013.6 |
| 20260906071556 | 72 | 51 | 0.0 | 0.0 | 0.00 | 0.00 | 0.00 | 99 | 1013.7 |
| 20260906071051 | 72 | 51 | 0.0 | 0.0 | 0.00 | 0.00 | 0.00 | 99 | 1013.7 |
| 20260906070548 | 72 | 51 | 0.0 | 0.0 | 0.00 | 0.00 | 0.00 | 99 | 1013.9 |
| 20260906070043 | 72 | 51 | 0.0 | 0.0 | 0.00 | 0.00 | 0.00 | 99 | 1013.8 |
| 20260906065543 | 72 | 51 | 0.0 | 0.0 | 0.00 | 0.00 | 0.00 | 99 | 1013.8 |
| 20260906065039 | 72 | 51 | 0.0 | 0.0 | 0.00 | 0.00 | 0.00 | 99 | 1014.1 |
| 20260906064534 | 72 | 51 | 0.0 | 0.0 | 0.00 | 0.00 | 0.00 | 99 | 1013.9 |
| 20260906064029 | 72 | 51 | 0.0 | 0.0 | 0.00 | 0.00 | 0.00 | 99 | 1014.0 |
| 20260906063524 | 72 | 51 | 0.0 | 0.0 | 0.00 | 0.00 | 0.00 | 99 | 1014.1 |
| 20260906063020 | 72 | 51 | 0.0 | 0.0 | 0.00 | 0.00 | 0.00 | 98 | 1014.1 |
| 20260906062514 | 72 | 51 | 0.0 | 0.0 | 0.00 | 0.00 | 0.00 | 98 | 1014.0 |
| 20260906062004 | 72 | 51 | 0.0 | 0.0 | 0.00 | 0.00 | 0.00 | 98 | 1014.3 |
| 20260906061500 | 72 | 51 | 0.0 | 0.0 | 0.00 | 0.00 | 0.00 | 98 | 1014.0 |
| 20260906060954 | 72 | 51 | 0.0 | 0.0 | 0.00 | 0.00 | 0.00 | 98 | 1014.1 |
| 20260906060450 | 72 | 51 | 0.0 | 0.0 | 0.00 | 0.00 | 0.00 | 98 | 1014.1 |
| 20260906055947 | 72 | 51 | 0.0 | 0.0 | 0.00 | 0.00 | 0.00 | 98 | 1014.0 |
| 20260906055443 | 72 | 51 | 0.0 | 0.0 | 0.00 | 0.00 | 0.00 | 98 | 1014.0 |
| 20260906054938 | 72 | 51 | 0.0 | 0.0 | 0.00 | 0.00 | 0.00 | 98 | 1013.8 |
| 20260906054433 | 72 | 51 | 0.0 | 0.0 | 0.00 | 0.00 | 0.00 | 98 | 1014.0 |
| 20260906053928 | 72 | 51 | 0.0 | 0.0 | 0.00 | 0.00 | 0.00 | 97 | 1013.9 |
| 20260906053424 | 73 | 51 | 0.0 | 0.0 | 0.00 | 0.00 | 0.00 | 97 | 1014.1 |
| 20260906052920 | 73 | 51 | 0.0 | 0.0 | 0.00 | 0.00 | 0.00 | 97 | 1014.1 |
| 20260906052416 | 73 | 51 | 0.0 | 0.0 | 0.00 | 0.00 | 0.00 | 97 | 1014.2 |
| 20260906051912 | 73 | 51 | 0.0 | 0.0 | 0.00 | 0.00 | 0.00 | 97 | 1014.2 |
| 20260906051407 | 73 | 51 | 0.0 | 0.0 | 0.00 | 0.00 | 0.00 | 97 | 1014.1 |
| 20260906050903 | 73 | 51 | 0.0 | 0.0 | 0.00 | 0.00 | 0.00 | 97 | 1014.1 |
| 20260906050357 | 73 | 51 | 0.0 | 0.0 | 0.00 | 0.00 | 0.00 | 96 | 1014.0 |
| 20260906045856 | 73 | 51 | 0.0 | 0.0 | 0.00 | 0.00 | 0.00 | 96 | 1014.3 |
| 20260906045355 | 73 | 51 | 0.0 | 0.0 | 0.00 | 0.00 | 0.00 | 96 | 1014.3 |
| 20260906044851 | 73 | 51 | 0.0 | 0.0 | 0.00 | 0.00 | 0.00 | 96 | 1014.7 |
| 20260906044351 | 73 | 51 | 0.0 | 0.0 | 0.00 | 0.00 | 0.00 | 96 | 1014.6 |
| 20260906043847 | 74 | 51 | 0.0 | 0.0 | 0.00 | 0.00 | 0.00 | 95 | 1014.8 |
| 20260906043343 | 74 | 51 | 0.0 | 0.0 | 0.00 | 0.00 | 0.00 | 95 | 1014.9 |
| 20260906042838 | 74 | 51 | 0.0 | 0.0 | 0.00 | 0.00 | 0.00 | 95 | 1014.6 |
| 20260906042337 | 74 | 51 | 0.0 | 0.0 | 0.00 | 0.00 | 0.00 | 94 | 1014.6 |
| 20260906041833 | 74 | 51 | 0.0 | 0.0 | 0.00 | 0.00 | 0.00 | 94 | 1014.7 |
| 20260906041328 | 74 | 51 | 0.0 | 0.0 | 0.00 | 0.00 | 0.00 | 93 | 1014.7 |
| 20260906040828 | 74 | 51 | 0.0 | 0.0 | 0.00 | 0.00 | 0.00 | 93 | 1014.7 |
| 20260906040323 | 75 | 51 | 0.0 | 0.0 | 0.00 | 0.00 | 0.00 | 92 | 1014.5 |
| 20260906035819 | 74 | 51 | 0.0 | 0.0 | 0.00 | 0.00 | 0.00 | 92 | 1014.5 |
| 20260906035314 | 75 | 51 | 0.0 | 0.0 | 0.00 | 0.00 | 0.00 | 92 | 1014.5 |
| 20260906034809 | 75 | 51 | 0.0 | 0.0 | 0.00 | 0.00 | 0.00 | 92 | 1014.6 |
| 20260906034303 | 75 | 51 | 0.0 | 0.0 | 0.00 | 0.00 | 0.00 | 91 | 1014.6 |
| 20260906033759 | 76 | 51 | 0.0 | 0.0 | 0.00 | 0.00 | 0.00 | 90 | 1014.5 |
| 20260906033258 | 76 | 51 | 0.0 | 0.0 | 0.00 | 0.00 | 0.00 | 90 | 1014.5 |
| 20260906032755 | 76 | 51 | 0.0 | 0.0 | 0.00 | 0.00 | 0.00 | 90 | 1014.4 |
| 20260906032250 | 76 | 51 | 0.0 | 0.0 | 0.00 | 0.00 | 0.00 | 90 | 1014.4 |
| 20260906031744 | 76 | 51 | 0.0 | 0.0 | 0.00 | 0.00 | 0.00 | 90 | 1014.4 |
| 20260906031241 | 76 | 51 | 0.0 | 0.0 | 0.00 | 0.00 | 0.00 | 90 | 1014.3 |
| 20260906030735 | 76 | 51 | 0.0 | 0.0 | 0.00 | 0.00 | 0.00 | 90 | 1014.5 |
| 20260906030230 | 76 | 51 | 0.0 | 0.0 | 0.00 | 0.00 | 0.00 | 90 | 1014.5 |
| 20260906025729 | 76 | 51 | 0.0 | 0.0 | 0.00 | 0.00 | 0.00 | 90 | 1014.3 |
| 20260906025229 | 76 | 51 | 0.0 | 0.0 | 0.00 | 0.00 | 0.00 | 90 | 1014.4 |
| 20260906024728 | 76 | 51 | 0.0 | 0.0 | 0.00 | 0.00 | 0.00 | 89 | 1014.3 |
| 20260906024227 | 77 | 51 | 0.0 | 0.0 | 0.00 | 0.00 | 0.00 | 89 | 1014.3 |
| 20260906023723 | 77 | 51 | 0.0 | 0.0 | 0.00 | 0.00 | 0.00 | 89 | 1014.0 |
| 20260906023218 | 77 | 51 | 0.0 | 0.0 | 0.00 | 0.00 | 0.00 | 88 | 1014.4 |
| 20260906022714 | 77 | 51 | 0.0 | 0.0 | 0.00 | 0.00 | 0.00 | 88 | 1014.7 |
| 20260906022209 | 77 | 51 | 0.0 | 0.0 | 0.00 | 0.00 | 0.00 | 89 | 1014.5 |
| 20260906021705 | 77 | 51 | 0.0 | 0.0 | 0.00 | 0.00 | 0.00 | 89 | 1014.6 |
| 20260906021204 | 77 | 51 | 0.0 | 0.0 | 0.00 | 0.00 | 0.00 | 88 | 1014.3 |
| 20260906020659 | 77 | 51 | 0.0 | 0.0 | 0.00 | 0.00 | 0.00 | 89 | 1014.4 |
| 20260906020153 | 77 | 51 | 0.0 | 0.0 | 0.00 | 0.00 | 0.00 | 89 | 1014.4 |
| 20260906015647 | 77 | 51 | 0.0 | 0.0 | 0.00 | 0.00 | 0.00 | 89 | 1014.4 |
| 20260906015146 | 77 | 51 | 0.0 | 0.0 | 0.00 | 0.00 | 0.00 | 89 | 1014.2 |
| 20260906014641 | 77 | 51 | 0.0 | 0.9 | 0.00 | 0.00 | 0.00 | 89 | 1014.3 |
| 20260906014137 | 77 | 51 | 0.0 | 0.0 | 0.00 | 0.00 | 0.00 | 89 | 1014.3 |
| 20260906013632 | 76 | 51 | 0.0 | 0.0 | 0.00 | 0.00 | 0.00 | 89 | 1014.1 |
| 20260906013127 | 76 | 51 | 0.0 | 0.0 | 0.00 | 0.00 | 0.00 | 88 | 1014.1 |
| 20260906012622 | 77 | 51 | 0.0 | 0.0 | 0.00 | 0.00 | 0.00 | 88 | 1014.1 |
| 20260906012117 | 77 | 51 | 0.0 | 0.0 | 0.00 | 0.00 | 0.00 | 87 | 1013.6 |
| 20260906011612 | 77 | 51 | 0.0 | 0.0 | 0.00 | 0.00 | 0.00 | 87 | 1013.2 |
| 20260906011107 | 77 | 51 | 0.0 | 0.0 | 0.00 | 0.00 | 0.00 | 86 | 1013.4 |
| 20260906010603 | 78 | 51 | 0.0 | 0.0 | 0.00 | 0.00 | 0.00 | 86 | 1013.2 |
| 20260906010059 | 78 | 51 | 0.0 | 0.0 | 0.00 | 0.00 | 0.00 | 85 | 1013.0 |
| 20260906005558 | 78 | 51 | 0.0 | 0.0 | 0.00 | 0.00 | 0.00 | 84 | 1012.6 |
| 20260906005056 | 78 | 51 | 0.0 | 0.9 | 0.00 | 0.00 | 0.00 | 84 | 1012.6 |
| 20260906004556 | 78 | 51 | 0.0 | 0.9 | 0.00 | 0.00 | 0.00 | 85 | 1012.7 |
| 20260906004051 | 79 | 51 | 0.0 | 0.0 | 0.00 | 0.00 | 0.00 | 83 | 1012.7 |
| 20260906003546 | 79 | 51 | 0.0 | 0.0 | 0.00 | 0.00 | 0.00 | 82 | 1012.8 |
| 20260906003042 | 79 | 51 | 0.0 | 0.0 | 0.00 | 0.00 | 0.00 | 81 | 1012.7 |
| 20260906002537 | 79 | 51 | 0.0 | 0.0 | 0.00 | 0.00 | 0.00 | 82 | 1012.8 |
| 20260906002032 | 79 | 51 | 0.0 | 0.9 | 0.00 | 0.00 | 0.00 | 81 | 1012.7 |
| 20260906001527 | 80 | 51 | 0.0 | 0.0 | 0.00 | 0.00 | 0.00 | 79 | 1012.9 |
| 20260906001022 | 80 | 51 | 0.0 | 0.0 | 0.00 | 0.00 | 0.00 | 79 | 1013.0 |
| 20260906000518 | 80 | 51 | 0.0 | 0.0 | 0.00 | 0.00 | 0.00 | 77 | 1012.7 |
| 20260906000018 | 80 | 50 | 0.0 | 0.0 | 0.00 | 0.00 | 0.00 | 77 | 1013.0 |
| 20260905235511 | 81 | 64 | 0.0 | 0.0 | 0.00 | 0.00 | 0.00 | 76 | 1013.2 |
| 20260905235007 | 81 | 64 | 0.0 | 0.0 | 0.00 | 0.00 | 0.00 | 75 | 1013.3 |
| 20260905234502 | 81 | 64 | 0.0 | 0.0 | 0.00 | 0.00 | 0.00 | 75 | 1013.2 |
| 20260905233956 | 82 | 64 | 0.0 | 1.7 | 0.00 | 0.00 | 0.00 | 75 | 1013.0 |
| 20260905233452 | 82 | 64 | 0.0 | 0.0 | 0.00 | 0.00 | 0.00 | 73 | 1013.0 |
| 20260905232950 | 83 | 63 | 1.7 | 1.7 | 0.00 | 0.00 | 0.00 | 73 | 1013.2 |
| 20260905232447 | 83 | 63 | 0.0 | 0.9 | 0.00 | 0.00 | 0.00 | 71 | 1013.3 |
| 20260905231942 | 84 | 72 | 0.9 | 0.9 | 0.00 | 0.00 | 0.00 | 68 | 1013.1 |
| 20260905231433 | 85 | 72 | 0.0 | 0.9 | 0.00 | 0.00 | 0.00 | 67 | 1013.0 |
| 20260905230928 | 86 | 76 | 0.0 | 0.9 | 0.00 | 0.00 | 0.00 | 65 | 1013.1 |
| 20260905230426 | 86 | 75 | 0.0 | 0.9 | 0.00 | 0.00 | 0.00 | 62 | 1013.1 |
| 20260905225919 | 87 | 18 | 0.0 | 2.6 | 0.00 | 0.00 | 0.00 | 62 | 1013.1 |
| 20260905225415 | 88 | 350 | 0.0 | 2.6 | 0.00 | 0.00 | 0.00 | 59 | 1013.1 |
| 20260905224910 | 89 | 330 | 0.0 | 0.0 | 0.00 | 0.00 | 0.00 | 57 | 1012.7 |
| 20260905224406 | 88 | 330 | 0.0 | 0.0 | 0.00 | 0.00 | 0.00 | 57 | 1012.7 |
| 20260905223859 | 88 | 330 | 1.7 | 3.5 | 0.00 | 0.00 | 0.00 | 57 | 1012.7 |
| 20260905223357 | 88 | 321 | 0.0 | 2.6 | 0.00 | 0.00 | 0.00 | 59 | 1012.6 |
| 20260905222852 | 88 | 326 | 0.9 | 2.6 | 0.00 | 0.00 | 0.00 | 61 | 1012.6 |
| 20260905222350 | 88 | 52 | 0.9 | 1.7 | 0.00 | 0.00 | 0.00 | 58 | 1012.7 |
| 20260905221841 | 87 | 81 | 0.0 | 0.0 | 0.00 | 0.00 | 0.00 | 61 | 1012.3 |
| 20260905221338 | 86 | 81 | 0.0 | 0.0 | 0.00 | 0.00 | 0.00 | 61 | 1012.5 |
| 20260905220833 | 86 | 58 | 0.9 | 1.7 | 0.00 | 0.00 | 0.00 | 60 | 1012.7 |
| 20260905220329 | 86 | 58 | 0.0 | 0.0 | 0.00 | 0.00 | 0.00 | 61 | 1012.7 |
| 20260905215828 | 85 | 57 | 1.7 | 2.6 | 0.00 | 0.00 | 0.00 | 61 | 1012.6 |
| 20260905215324 | 85 | 54 | 0.0 | 0.0 | 0.00 | 0.00 | 0.00 | 61 | 1013.0 |
| 20260905214821 | 86 | 64 | 1.7 | 6.1 | 0.00 | 0.00 | 0.00 | 60 | 1012.9 |
| 20260905214316 | 86 | 62 | 1.7 | 9.6 | 0.00 | 0.00 | 0.00 | 59 | 1013.2 |
| 20260905213810 | 87 | 57 | 2.6 | 11.3 | 0.00 | 0.00 | 0.00 | 57 | 1013.4 |
| 20260905213306 | 88 | 94 | 5.2 | 7.8 | 0.00 | 0.00 | 0.00 | 57 | 1013.1 |
| 20260905212801 | 87 | 53 | 5.2 | 8.7 | 0.00 | 0.00 | 0.00 | 60 | 1013.0 |
| 20260905212301 | 86 | 76 | 2.6 | 7.0 | 0.00 | 0.00 | 0.00 | 62 | 1013.1 |
| 20260905211755 | 87 | 124 | 5.2 | 7.0 | 0.00 | 0.00 | 0.00 | 60 | 1012.9 |
| 20260905211250 | 89 | 68 | 3.5 | 9.6 | 0.00 | 0.00 | 0.00 | 57 | 1013.0 |
| 20260905210748 | 95 | 97 | 6.1 | 14.8 | 0.00 | 0.00 | 0.00 | 51 | 1013.2 |
| 20260905210246 | 99 | 232 | 3.5 | 8.7 | 0.00 | 0.00 | 0.00 | 48 | 1012.8 |
| 20260905205745 | 98 | 225 | 0.9 | 6.1 | 0.00 | 0.00 | 0.00 | 48 | 1012.6 |
| 20260905205240 | 98 | 219 | 2.6 | 3.5 | 0.00 | 0.00 | 0.00 | 48 | 1012.4 |
| 20260905204740 | 98 | 222 | 0.9 | 2.6 | 0.00 | 0.00 | 0.00 | 48 | 1012.5 |
| 20260905204235 | 99 | 225 | 0.9 | 2.6 | 0.00 | 0.00 | 0.00 | 48 | 1012.3 |
| 20260905203735 | 100 | 235 | 2.6 | 2.6 | 0.00 | 0.00 | 0.00 | 42 | 1012.4 |
| 20260905203230 | 99 | 222 | 1.7 | 2.6 | 0.00 | 0.00 | 0.00 | 42 | 1012.5 |
| 20260905202726 | 99 | 220 | 0.0 | 2.6 | 0.00 | 0.00 | 0.00 | 42 | 1012.6 |
| 20260905202221 | 100 | 217 | 1.7 | 3.5 | 0.00 | 0.00 | 0.00 | 38 | 1012.6 |
| 20260905201716 | 99 | 225 | 0.0 | 2.6 | 0.00 | 0.00 | 0.00 | 41 | 1012.6 |
| 20260905201211 | 99 | 219 | 0.9 | 2.6 | 0.00 | 0.00 | 0.00 | 42 | 1012.8 |
| 20260905200707 | 99 | 221 | 0.9 | 2.6 | 0.00 | 0.00 | 0.00 | 43 | 1012.6 |
| 20260905200202 | 98 | 222 | 3.5 | 6.1 | 0.00 | 0.00 | 0.00 | 43 | 1012.7 |
| 20260905195700 | 96 | 217 | 0.9 | 0.9 | 0.00 | 0.00 | 0.00 | 49 | 1012.8 |
| 20260905195154 | 97 | 219 | 0.9 | 3.5 | 0.00 | 0.00 | 0.00 | 47 | 1012.9 |
| 20260905194650 | 98 | 222 | 0.9 | 5.2 | 0.00 | 0.00 | 0.00 | 46 | 1013.0 |
| 20260905194149 | 99 | 218 | 0.0 | 0.9 | 0.00 | 0.00 | 0.00 | 44 | 1013.1 |
| 20260905193644 | 98 | 217 | 0.9 | 2.6 | 0.00 | 0.00 | 0.00 | 45 | 1013.1 |
| 20260905193139 | 97 | 216 | 1.7 | 2.6 | 0.00 | 0.00 | 0.00 | 47 | 1013.1 |
| 20260905192635 | 97 | 213 | 0.9 | 1.7 | 0.00 | 0.00 | 0.00 | 47 | 1013.2 |
| 20260905192131 | 98 | 230 | 0.0 | 0.0 | 0.00 | 0.00 | 0.00 | 45 | 1013.2 |
| 20260905191631 | 98 | 217 | 0.0 | 1.7 | 0.00 | 0.00 | 0.00 | 47 | 1013.3 |
| 20260905191129 | 96 | 219 | 0.0 | 3.5 | 0.00 | 0.00 | 0.00 | 48 | 1013.4 |
| 20260905190627 | 98 | 219 | 0.9 | 0.9 | 0.00 | 0.00 | 0.00 | 48 | 1013.4 |
| 20260905190127 | 98 | 221 | 0.0 | 0.0 | 0.00 | 0.00 | 0.00 | 47 | 1013.6 |
| 20260905185626 | 98 | 219 | 0.9 | 0.9 | 0.00 | 0.00 | 0.00 | 47 | 1013.6 |
| 20260905185120 | 97 | 218 | 0.0 | 1.7 | 0.00 | 0.00 | 0.00 | 49 | 1013.4 |
| 20260905184615 | 98 | 223 | 0.9 | 2.6 | 0.00 | 0.00 | 0.00 | 47 | 1013.5 |
| 20260905184114 | 97 | 218 | 0.9 | 1.7 | 0.00 | 0.00 | 0.00 | 49 | 1013.7 |
| 20260905183613 | 96 | 213 | 0.9 | 2.6 | 0.00 | 0.00 | 0.00 | 52 | 1013.7 |
| 20260905183108 | 96 | 218 | 0.0 | 0.9 | 0.00 | 0.00 | 0.00 | 52 | 1013.8 |
| 20260905182608 | 96 | 209 | 0.0 | 1.7 | 0.00 | 0.00 | 0.00 | 53 | 1013.6 |
| 20260905182102 | 95 | 214 | 0.9 | 3.5 | 0.00 | 0.00 | 0.00 | 53 | 1013.8 |
| 20260905181557 | 95 | 217 | 0.0 | 3.5 | 0.00 | 0.00 | 0.00 | 56 | 1014.0 |
| 20260905181056 | 96 | 220 | 3.5 | 5.2 | 0.00 | 0.00 | 0.00 | 54 | 1014.3 |
| 20260905180551 | 96 | 217 | 1.7 | 5.2 | 0.00 | 0.00 | 0.00 | 56 | 1014.1 |
| 20260905180046 | 96 | 218 | 0.9 | 2.6 | 0.00 | 0.00 | 0.00 | 53 | 1014.2 |
| 20260905175545 | 95 | 219 | 0.9 | 0.9 | 0.00 | 0.00 | 0.00 | 58 | 1014.2 |
| 20260905175041 | 95 | 218 | 0.0 | 3.5 | 0.00 | 0.00 | 0.00 | 59 | 1014.2 |
| 20260905174537 | 95 | 220 | 2.6 | 6.1 | 0.00 | 0.00 | 0.00 | 57 | 1014.3 |
| 20260905174032 | 95 | 219 | 1.7 | 2.6 | 0.00 | 0.00 | 0.00 | 59 | 1014.5 |
| 20260905173528 | 94 | 218 | 1.7 | 1.7 | 0.00 | 0.00 | 0.00 | 61 | 1014.3 |
| 20260905173023 | 94 | 218 | 0.0 | 0.0 | 0.00 | 0.00 | 0.00 | 61 | 1014.6 |
| 20260905172521 | 94 | 217 | 3.5 | 3.5 | 0.00 | 0.00 | 0.00 | 60 | 1014.6 |
| 20260905172017 | 94 | 217 | 1.7 | 5.2 | 0.00 | 0.00 | 0.00 | 60 | 1014.6 |
| 20260905171514 | 93 | 220 | 2.6 | 3.5 | 0.00 | 0.00 | 0.00 | 62 | 1014.9 |
| 20260905171009 | 93 | 218 | 0.0 | 1.7 | 0.00 | 0.00 | 0.00 | 63 | 1014.6 |
| 20260905170506 | 93 | 218 | 0.0 | 1.7 | 0.00 | 0.00 | 0.00 | 63 | 1014.8 |
| 20260905170000 | 93 | 217 | 0.9 | 2.6 | 0.00 | 0.00 | 0.00 | 62 | 1014.7 |
| 20260905165455 | 93 | 219 | 2.6 | 6.1 | 0.00 | 0.00 | 0.00 | 61 | 1014.9 |
| 20260905164950 | 92 | 214 | 0.9 | 2.6 | 0.00 | 0.00 | 0.00 | 62 | 1014.9 |
| 20260905164450 | 92 | 218 | 0.0 | 0.0 | 0.00 | 0.00 | 0.00 | 64 | 1015.0 |
| 20260905163944 | 92 | 214 | 0.0 | 2.6 | 0.00 | 0.00 | 0.00 | 64 | 1015.2 |
| 20260905163442 | 91 | 215 | 0.0 | 3.5 | 0.00 | 0.00 | 0.00 | 65 | 1014.9 |
| 20260905162937 | 91 | 217 | 1.7 | 3.5 | 0.00 | 0.00 | 0.00 | 65 | 1015.2 |
| 20260905162432 | 91 | 210 | 0.0 | 3.5 | 0.00 | 0.00 | 0.00 | 66 | 1015.3 |
| 20260905161927 | 91 | 217 | 0.9 | 1.7 | 0.00 | 0.00 | 0.00 | 65 | 1015.3 |
| 20260905161426 | 91 | 212 | 0.0 | 0.9 | 0.00 | 0.00 | 0.00 | 67 | 1015.4 |
| 20260905160924 | 90 | 212 | 1.7 | 3.5 | 0.00 | 0.00 | 0.00 | 66 | 1015.5 |
| 20260905160418 | 91 | 210 | 0.0 | 1.7 | 0.00 | 0.00 | 0.00 | 67 | 1015.5 |
| 20260905155913 | 90 | 215 | 1.7 | 2.6 | 0.00 | 0.00 | 0.00 | 68 | 1015.4 |
| 20260905155412 | 89 | 217 | 0.0 | 0.9 | 0.00 | 0.00 | 0.00 | 70 | 1015.6 |
| 20260905154911 | 89 | 219 | 0.9 | 2.6 | 0.00 | 0.00 | 0.00 | 70 | 1015.6 |
| 20260905154407 | 89 | 220 | 0.0 | 1.7 | 0.00 | 0.00 | 0.00 | 70 | 1015.7 |
| 20260905153903 | 89 | 219 | 1.7 | 1.7 | 0.00 | 0.00 | 0.00 | 71 | 1015.8 |
| 20260905153359 | 88 | 215 | 0.9 | 1.7 | 0.00 | 0.00 | 0.00 | 70 | 1015.9 |
| 20260905152858 | 89 | 210 | 0.0 | 2.6 | 0.00 | 0.00 | 0.00 | 69 | 1016.1 |
| 20260905152357 | 88 | 217 | 0.0 | 0.0 | 0.00 | 0.00 | 0.00 | 73 | 1015.8 |
| 20260905151853 | 88 | 217 | 1.7 | 1.7 | 0.00 | 0.00 | 0.00 | 74 | 1016.1 |
| 20260905151348 | 88 | 215 | 0.0 | 0.9 | 0.00 | 0.00 | 0.00 | 73 | 1015.9 |
| 20260905150843 | 88 | 205 | 0.0 | 0.9 | 0.00 | 0.00 | 0.00 | 75 | 1016.2 |
| 20260905150337 | 88 | 221 | 0.9 | 1.7 | 0.00 | 0.00 | 0.00 | 74 | 1015.9 |
| 20260905145834 | 88 | 216 | 0.0 | 0.0 | 0.00 | 0.00 | 0.00 | 74 | 1015.8 |
| 20260905145329 | 87 | 221 | 0.0 | 0.0 | 0.00 | 0.00 | 0.00 | 74 | 1016.2 |
| 20260905144827 | 87 | 215 | 0.0 | 0.9 | 0.00 | 0.00 | 0.00 | 76 | 1016.0 |
| 20260905144323 | 87 | 212 | 0.0 | 0.9 | 0.00 | 0.00 | 0.00 | 75 | 1016.1 |
| 20260905143822 | 87 | 210 | 0.0 | 0.0 | 0.00 | 0.00 | 0.00 | 75 | 1016.1 |
| 20260905143316 | 86 | 216 | 0.0 | 0.0 | 0.00 | 0.00 | 0.00 | 78 | 1016.2 |
| 20260905142815 | 85 | 211 | 0.0 | 0.0 | 0.00 | 0.00 | 0.00 | 77 | 1016.2 |
| 20260905142310 | 85 | 215 | 0.0 | 0.9 | 0.00 | 0.00 | 0.00 | 79 | 1016.3 |
| 20260905141806 | 85 | 206 | 0.0 | 0.0 | 0.00 | 0.00 | 0.00 | 80 | 1016.4 |
| 20260905141301 | 85 | 215 | 0.0 | 0.0 | 0.00 | 0.00 | 0.00 | 79 | 1016.3 |
| 20260905140756 | 84 | 211 | 0.0 | 0.0 | 0.00 | 0.00 | 0.00 | 81 | 1016.5 |
| 20260905140250 | 84 | 213 | 0.0 | 0.0 | 0.00 | 0.00 | 0.00 | 81 | 1016.2 |
| 20260905135749 | 84 | 217 | 0.0 | 0.0 | 0.00 | 0.00 | 0.00 | 82 | 1016.2 |
| 20260905135245 | 83 | 216 | 0.0 | 0.0 | 0.00 | 0.00 | 0.00 | 82 | 1016.2 |
| 20260905134745 | 83 | 213 | 0.0 | 0.0 | 0.00 | 0.00 | 0.00 | 83 | 1016.4 |
| 20260905134239 | 82 | 215 | 0.0 | 0.0 | 0.00 | 0.00 | 0.00 | 85 | 1016.5 |
| 20260905133734 | 82 | 215 | 0.0 | 1.7 | 0.00 | 0.00 | 0.00 | 86 | 1016.4 |
| 20260905133229 | 82 | 213 | 0.0 | 0.0 | 0.00 | 0.00 | 0.00 | 85 | 1016.7 |
| 20260905132728 | 82 | 211 | 0.0 | 0.0 | 0.00 | 0.00 | 0.00 | 86 | 1016.6 |
| 20260905132224 | 81 | 211 | 0.0 | 0.0 | 0.00 | 0.00 | 0.00 | 86 | 1016.6 |
| 20260905131719 | 81 | 211 | 0.0 | 0.0 | 0.00 | 0.00 | 0.00 | 86 | 1016.7 |
| 20260905131214 | 81 | 211 | 0.0 | 0.0 | 0.00 | 0.00 | 0.00 | 85 | 1016.7 |
| 20260905130714 | 82 | 213 | 0.0 | 0.0 | 0.00 | 0.00 | 0.00 | 86 | 1016.6 |
| 20260905130208 | 82 | 213 | 0.0 | 0.0 | 0.00 | 0.00 | 0.00 | 87 | 1016.8 |
| 20260905125703 | 81 | 206 | 0.0 | 0.0 | 0.00 | 0.00 | 0.00 | 88 | 1016.7 |
| 20260905125158 | 81 | 213 | 0.0 | 0.0 | 0.00 | 0.00 | 0.00 | 88 | 1016.7 |
| 20260905124654 | 81 | 206 | 0.0 | 0.0 | 0.00 | 0.00 | 0.00 | 88 | 1016.7 |
| 20260905124150 | 80 | 213 | 0.0 | 0.0 | 0.00 | 0.00 | 0.00 | 89 | 1016.8 |
| 20260905123645 | 80 | 206 | 0.0 | 0.0 | 0.00 | 0.00 | 0.00 | 88 | 1016.6 |